Location: Berkeley
(37.8716°N, 122.2727°W)
Time: 04:08:45
(UTC-08:00)

N. Korean satellite - Visible Passes

Search period start: 15 December 2017 00:00
Search period end: 25 December 2017 00:00
Orbit: 461 x 513 km, 97.2° (Epoch: 14 December)

Date Brightness Start Highest point End Pass type
(mag) Time Alt. Az. Time Alt. Az. Time Alt. Az.
15 Dec 7.2 17:41:28 10° SE 17:44:52 36° ENE 17:48:20 10° N visible
15 Dec 10.0 19:16:48 10° WSW 19:18:31 13° W 19:20:15 10° WNW visible
16 Dec 7.2 06:43:37 10° NNE 06:47:18 62° E 06:50:52 10° S visible
16 Dec 8.1 17:18:49 10° ESE 17:21:28 19° ENE 17:24:09 10° NNE visible
16 Dec 9.0 18:51:42 10° SSW 18:54:47 25° W 18:57:56 10° NW visible
17 Dec 8.9 06:20:25 10° NE 06:23:39 29° E 06:26:49 10° SSE visible
17 Dec 7.5 18:27:32 10° S 18:31:09 51° W 18:34:50 10° NNW visible
18 Dec 9.9 05:57:51 10° ENE 05:59:57 15° E 06:02:01 10° SE visible
18 Dec 6.5 18:03:53 10° SSE 18:07:35 75° ENE 18:11:21 10° N visible
19 Dec 7.2 17:40:41 10° SE 17:44:06 35° ENE 17:47:34 10° N visible
19 Dec 10.0 19:15:56 10° WSW 19:17:43 13° W 19:19:31 10° WNW visible
20 Dec 7.3 06:42:51 10° NNE 06:46:29 60° E 06:50:01 10° S visible
20 Dec 8.1 17:18:02 10° ESE 17:20:41 19° ENE 17:23:21 10° NNE visible
20 Dec 9.0 18:50:52 10° SSW 18:53:59 25° W 18:57:10 10° NW visible
21 Dec 8.9 06:19:39 10° NE 06:22:51 28° E 06:25:57 10° SSE visible
21 Dec 7.5 18:26:42 10° S 18:30:21 52° W 18:34:02 10° NNW visible
22 Dec 9.9 05:57:07 10° ENE 05:59:07 14° E 06:01:05 10° SE visible
22 Dec 6.5 18:03:03 10° SSE 18:06:46 74° ENE 18:10:32 10° N visible
23 Dec 7.3 17:39:51 10° SE 17:43:16 35° ENE 17:46:44 10° N visible
23 Dec 10.0 19:15:02 10° WSW 19:16:53 13° W 19:18:45 10° WNW visible
24 Dec 7.3 06:42:03 10° NNE 06:45:38 59° E 06:49:06 10° S visible
24 Dec 8.1 17:17:13 10° ESE 17:19:51 18° ENE 17:22:30 10° NNE visible
24 Dec 9.0 18:50:00 10° SSW 18:53:10 26° W 18:56:20 10° NW visible
